Hermiston, OR

5:27 AM PDT on October 17, 2017 (GMT -0700)
Hermiston Municipal

Weather History for KHRI - December, 2013

Change the Weather History Date:

Monday, December 2, 2013

  Actual Average Record
Temperature  
Mean Temperature 42 °F 35 °F  
Max Temperature 53 °F 42 °F 70 °F (1941)
Min Temperature 30 °F 28 °F -5 °F (1985)
Degree Days  
Heating Degree Days 24    
Moisture  
Dew Point 30 °F    
Average Humidity 62    
Maximum Humidity 82    
Minimum Humidity 43    
Precipitation  
Precipitation 0.00 in 0.04 in 0.34 in (1980)
Month to date precipitation 0.07  
Year to date precipitation 9.18  
Sea Level Pressure  
Sea Level Pressure 29.84 in    
Wind  
Wind Speed 19 mph (WSW)    
Max Wind Speed 28 mph    
Max Gust Speed 46 mph    
Visibility 10 miles    
Events      
T = Trace of Precipitation, MM = Missing Value Source: NWS Daily Summary

Daily Weather History Graph

Daily Weather History Graph

Search for Another Location

Airport or City:

Trip Planner

Search our weather history database for the weather conditions in past years. The results will help you decide how hot, cold, wet, or windy it might be!

Date:

Astronomy

Dec. 02, 2013 Rise Set
Actual Time 7:19 AM PST 4:13 PM PST
Civil Twilight 6:45 AM PST 4:47 PM PST
Nautical Twilight 6:08 AM PST 5:24 PM PST
Astronomical Twilight 5:32 AM PST 6:00 PM PST
Moon 6:48 AM PST (12/2) 4:22 PM PST (12/2)
Length of Visible Light 10h 01m
Length of Day
8h 54m
Waning Crescent, 0% of the Moon is Illuminated
Dec 2
Waning Crescent
Dec 2
New
Dec 9
First Quarter
Dec 17
Full
Dec 25
Last Quarter

Hourly Weather History & Observations

Time (PST) Temp. Windchill Dew Point Humidity Pressure Visibility Wind Dir Wind Speed Gust Speed Precip Events Conditions
12:53 AM 52.0 °F - 41.0 °F 66% 29.75 in 10.0 mi WSW 24.2 mph 38.0 mph N/A   Mostly Cloudy
1:53 AM 53.1 °F - 41.0 °F 64% 29.71 in 10.0 mi WSW 27.6 mph 46.0 mph N/A   Partly Cloudy
2:53 AM 52.0 °F - 41.0 °F 66% 29.71 in 10.0 mi WSW 18.4 mph - N/A   Partly Cloudy
3:53 AM 51.1 °F - 42.1 °F 71% 29.73 in 10.0 mi West 25.3 mph 32.2 mph N/A   Overcast
4:53 AM 50.0 °F - 39.0 °F 66% 29.75 in 10.0 mi West 16.1 mph 28.8 mph N/A   Overcast
5:53 AM 48.0 °F - 30.9 °F 52% 29.76 in 10.0 mi West 26.5 mph 34.5 mph 0.00 in   Overcast
6:53 AM 46.0 °F 39.3 °F 30.0 °F 54% 29.78 in 10.0 mi West 16.1 mph - N/A   Overcast
7:53 AM 45.0 °F 39.3 °F 30.0 °F 56% 29.79 in 10.0 mi West 11.5 mph - N/A   Overcast
8:53 AM 45.0 °F 38.2 °F 28.9 °F 53% 29.81 in 10.0 mi West 15.0 mph 25.3 mph N/A   Overcast
9:53 AM 44.1 °F 36.8 °F 30.0 °F 58% 29.83 in 10.0 mi WSW 16.1 mph 20.7 mph N/A   Scattered Clouds
10:53 AM 44.1 °F 37.1 °F 30.0 °F 58% 29.84 in 10.0 mi WSW 15.0 mph - N/A   Overcast
11:53 AM 46.0 °F 38.5 °F 28.0 °F 50% 29.83 in 10.0 mi West 19.6 mph 28.8 mph N/A   Scattered Clouds
12:53 PM 48.9 °F - 27.0 °F 43% 29.82 in 10.0 mi West 21.9 mph 34.5 mph N/A   Mostly Cloudy
1:53 PM 45.0 °F 36.9 °F 25.0 °F 46% 29.83 in 10.0 mi West 20.7 mph - N/A   Partly Cloudy
2:53 PM 44.1 °F 34.6 °F 27.0 °F 51% 29.84 in 10.0 mi WSW 26.5 mph 34.5 mph N/A   Clear
3:53 PM 42.1 °F 33.1 °F 27.0 °F 55% 29.86 in 10.0 mi West 20.7 mph 26.5 mph N/A   Partly Cloudy
4:53 PM 39.0 °F 30.6 °F 28.0 °F 65% 29.89 in 10.0 mi WSW 15.0 mph 24.2 mph N/A   Clear
5:53 PM 37.0 °F 28.9 °F 28.0 °F 70% 29.91 in 10.0 mi WSW 12.7 mph - N/A   Clear
6:53 PM 35.1 °F 27.4 °F 27.0 °F 72% 29.92 in 10.0 mi WSW 10.4 mph - N/A   Clear
7:53 PM 35.1 °F 27.9 °F 27.0 °F 72% 29.94 in 10.0 mi WSW 9.2 mph - N/A   Clear
8:53 PM 32.0 °F 24.2 °F 25.0 °F 75% 29.95 in 10.0 mi SSW 9.2 mph - N/A   Clear
9:53 PM 33.1 °F 26.9 °F 25.0 °F 72% 29.96 in 10.0 mi WSW 6.9 mph - N/A   Overcast
10:53 PM 30.9 °F 25.2 °F 25.0 °F 79% 29.98 in 10.0 mi West 5.8 mph - N/A   Scattered Clouds
11:53 PM 32.0 °F 26.4 °F 27.0 °F 82% 30.00 in 10.0 mi NNW 5.8 mph - N/A   Overcast